User: anonymous   Login
Location: Bailen
(14.1842°N, 120.7958°E)
Time: 06:36:49
(UTC+00:00)
Language:

SeaSat 1 - Orbit

View from above orbital plane
View from above orbital plane
View from above satellite
View from above satellite

Ground track
Ground track

The orbit is defined by the following mean orbital elements,

1 10967U          26067.94273873 +.00000000 +00000-0 +13028-3 0 00007
2 10967 108.0110 123.9324 0002295 286.4076  73.6817 14.46159630    02
Epoch (UTC): 08 March 2026 22:37:32
Eccentricity: 0.0002295
inclination: 108.0110°
perigee height: 737 km
apogee height: 740 km
right ascension of ascending node: 123.9324°
argument of perigee: 286.4076°
revolutions per day: 14.46159630
mean anomaly at epoch: 73.6817°

The dashed part of the orbit path shows where the satellite is in the earth's shadow,  

DLR